Back to catalog

FENGYUN 1C DEB

AliveSSO
NORAD 32223·DEBRIS·🇨🇳 China

Launched May 10, 1999 from Taiyuan Satellite Launch Center

Loading…

Next Passes (next 24 hours)

TLE

FreshSource: Space-Track

Epoch: Sep 14, 2026, 04:32 UTC

1 32223U 99025CVV 26257.18916892  .00001846  00000-0  84029-3 0  9998
2 32223  98.8276 341.4782 0045896 243.1253 146.4774 14.22407475681380

Track FENGYUN 1C DEB in real time with AllMySat

Download on the App Store